OBJECT C, 69584

Orbit data source: Space-Track

You're viewing an Uncataloged Satellite

Recently launched and/or uncataloged satellites may have evolving metadata. Metadata may include but not limited to: Owner, Maufacturer, Bus, Motor, and Mission.

OBJECT C, 69584 is a satellite owned by Centispace (CN) in LEO that was launched on Wed, 17 Jun 2026 UTC via a KUAIZHOU-11 launch vehicle from the Jiuquan Satellite Launch Center, China (JSC). Unknown objects in Earth's orbit typically refer to objects detected orbiting the Earth but have not yet been identified or cataloged. These objects could be anything from previously untracked satellites, spent rocket stages, debris from satellite collisions, or even natural meteoroids temporarily captured by Earth's gravity.

Loading next visibility...
Identifier
69584, 2026-138C
Orbit
LEO
Country
Flag of CNCN / PRC
Related business
Manufacturer
HITSAT
Mission
Operational spacecraft
Bus & Motor
WK01H, Unknown motor
Mass
140 kg wet, 140 kg dry
Launch date (UTC)
2026-06-17 (2 days ago)
Launch vehicle
KUAIZHOU-11
Launch site
Jiuquan Satellite Launch Center, China (JSC)
Object type
Unknown
Shape & HBR
Unknown
Radar Cross Section
RCS unknown

Expand to show TLE details & history
Last TLE update: 1 day ago

TLE from 1 day ago
0 OBJECT C
1 69584U 26138C   26169.48286078 -.00000107  00000-0  23745-4 0  9993
2 69584  55.1452 276.3744 0008531 279.2700  80.7310 14.15830371   207
Epoch: 2026-06-18T11:35Z
TLE epoch observation values (Epoch: 2026-06-18T11:35:19.171Z)
Latitude
0.00003°
Longitude
-164.18101°
Altitude
839.557 km
Speed
7.434 km/s
True Right ascension
18h 25m 29s
True Declination
0° 00' 00"
Sunlit
Object was in full shadow at epoch
Visualization orbit readout
Latitude
Unknown
Longitude
Unknown
Altitude
Unknown
Speed
Unknown
Apparent Right ascension
Unknown
Apparent Declination
Unknown
Sunlit
N/A
Visualization observer readout
Local Sidereal Time
05:46:54
Azimuth
Unknown
Elevation
Unknown
Doppler factor
Unknown
Orbital elements
Apogee altitude
845.589 km
Perigee altitude
833.274 km
Semi-major axis
7,217.569 km
Eccentricity
0.00085
Inclination
55.1452°
RAAN
276.3744°
Arg. of periapsis
279.27°
True anomaly
80.8275°
Mean anomaly
80.731°
Eccentric anomaly
80.77925°
Mean motion
3.53962 °/min
Orbital period
101.71 mins
BSTAR
0.000023745
Loading maneuver chart data...
Computing Atmospheric mass density...
Loading historical data...
Loading historical data...
Loading historical data...
Loading historical data...
Loading historical data...
Loading historical data...
Loading historical data...

Documentation

Showing up to 5 results
|